Regional Weather Roundup
Issued by NWS

Home | Current Version | Previous Version | Graphics & Text | Print | Product List | Glossary On
Versions: 1 2 3 4 5 6 7 8 9 10 11 12 13 14 15 16 17 18 19 20 21 22 23 24 25 26 27 28 29 30 31 32 33 34 35 36 37 38 39 40 41 42 43 44 45 46 47 48 49 50
022
ASUS45 KBOU 241310
RWRCO

WEATHER ROUNDUP FOR COLORADO
NATIONAL WEATHER SERVICE DENVER/BOULDER CO
600 AM MST FRI NOV 24 2017

NOTE: "FAIR" INDICATES FEW OR NO CLOUDS BELOW 12000 FEET WITH NO
SIGNIFICANT WEATHER AND/OR OBSTRUCTIONS TO VISIBILITY.

COZ001>005-013-030-031-241400-
...NORTHWEST COLORADO...

CITY           SKY/WX    TMP DP  RH WIND       PRES   REMARKS
CRAIG          FAIR      34  30  85 CALM      30.04F
HAYDEN         CLOUDY    35  31  85 E6        30.06S WCI  30
MEEKER         FAIR      42  33  70 E5        30.05S
RABBIT EARS PA CLOUDY    32  27  80 W8        30.16F WCI  25
STEAMBOAT SPGS MOCLDY    31  30  95 CALM      30.06S
WALDEN         FAIR      41  21  45 SE9G22    30.05F
$$

COZ006>008-011-241400-
...WEST CENTRAL VALLEYS...

CITY           SKY/WX    TMP DP  RH WIND       PRES   REMARKS
GRAND JUNCTION CLOUDY    40  33  76 CALM      30.07S
MONTROSE       FAIR      33  27  78 SE8       30.12F WCI  26
EAGLE          MOCLDY    31  29  92 CALM      30.12F
RIFLE          CLOUDY    36  33  89 SW5       30.10S
DELTA          FAIR      37  29  72 E3        30.10F
NUCLA          FAIR      34  19  55 E7        30.17S WCI  28
$$

COZ017>023-064>068-241400-
...SOUTHWEST COLORADO...

CITY           SKY/WX    TMP DP  RH WIND       PRES   REMARKS
DURANGO        FAIR      22  20  92 CALM      30.15S
CORTEZ         FAIR      25  22  88 NE6       30.15S WCI  18
PAGOSA SPRINGS FAIR      28  26  90 CALM      30.18F
TELLURIDE      MOCLDY    40  14  35 SE7       30.26R
WOLF CREEK PAS FAIR      32  18  55 W12       30.37S WCI  23
$$

COZ009-010-012-014-032>034-037-058>063-241400-
...CENTRAL COLORADO...

CITY           SKY/WX    TMP DP  RH WIND       PRES   REMARKS
ASPEN          CLOUDY    34  26  72 SE6       30.13F WCI  29
BUENA VISTA    FAIR      48  15  26 NW8       30.08F
COPPER MTN     NOT AVBL
BERTHOUD PASS  CLOUDY    28  18  64 W40G51    30.22F WCI  11
COTTONWOOD PAS FAIR      50  16  25 W24G40    30.14S
GUNNISON       FAIR      22  21  96 CALM      30.22
KREMMLING      DRIZZLE   37  32  81 E8        30.09F
LEADVILLE      FAIR      40  16  37 NW14G20   30.16F
MONARCH PASS   FAIR      32  16  51 W30       30.39S WCI  18
SALIDA         FAIR      50  18  28 SW12      30.13R
SUNLIGHT       CLOUDY    34  21  60 SW10G20   30.27S WCI  26
WILKERSON PASS FAIR      37   9  30 W18G31    30.17F
$$

COZ069>075-241400-
...SAN LUIS VALLEY/SANGRE DE CRISTO MOUNTAINS...

CITY           SKY/WX    TMP DP  RH WIND       PRES   REMARKS
ALAMOSA        FAIR      14  11  87 S6        30.14F WCI   5
DEL NORTE      FAIR      29  13  51 W10       30.15S WCI  20
LA VETA PASS   FAIR      36  18  48 SW31G43     N/A
SAGUACHE       FAIR      23  16  74 CALM      30.15R
$$

COZ035-036-038>040-241400-
...NORTHERN COLORADO FRONT RANGE...

CITY           SKY/WX    TMP DP  RH WIND       PRES   REMARKS
DENVER INTL AP MOCLDY    59  15  18 W8        29.82F
DMNS CITY PARK   N/A     58  15  19 SW10G16   29.84S
AURORA         PTCLDY    54  16  22 W8        29.85F
FRONT RANGE AP FAIR      58  20  22 S7        29.85S
ERIE MUNI ARPT FAIR      55  16  21 CALM      29.87R
BOULDER MUN AP FAIR      64  21  19 SW7G23    29.80S
CENTENNIAL     FAIR      48  19  31 S9        29.86F
BROOMFIELD     PTCLDY    64  18  16 W20G41    29.86F
FORT COLLINS   FAIR      36  30  79 NE8       29.81R
LONGMONT       FAIR      65  22  19 W8        29.83R
$$

COZ041-046-047-076>085-087-088-241400-
...PIKES PEAK/PALMER DIVIDE AND SOUTHERN FOOTHILLS...

CITY           SKY/WX    TMP DP  RH WIND       PRES   REMARKS
COLO. SPRINGS  FAIR      62  12  14 NW18G30   29.92S
A. F. ACADEMY  FAIR      41  13  32 NE5       29.92F
SCHRIEVER AFB  FAIR      58   6  12 NW13      29.93R
CHEYENNE MTN   FAIR      58   8  13 S7        29.90S
ELLICOTT         N/A    N/A N/A N/A NW10      29.90S
FALCON         FAIR      50   8  18 W10       29.96S
FORT CARSON    FAIR      47  17  29 SW7       29.89S
LIMON          FAIR      42  22  44 N5        29.85F
MONUMENT HILL  FAIR      46  14  27 W5        29.95F
CANON CITY     FAIR      43  21  42 MISG      29.91R
WALSENBURG     FAIR      55  23  28 SW10      29.96S
TRINIDAD       FAIR      49  19  30 W9G17     29.92S
$$

COZ042>045-048>051-090-091-241400-
...NORTHEAST COLORADO...

CITY           SKY/WX    TMP DP  RH WIND       PRES   REMARKS
GREELEY ARPT   FAIR      33  27  78 NE8       29.81S WCI  26
AKRON          FAIR      43  22  43 SW12      29.79F
BURLINGTON     FAIR      47  29  49 W6        29.79S
WRAY           NOT AVBL
YUMA           FAIR      43  27  52 SW9       29.77F
STERLING       FAIR      37  30  75 W3        29.76F
HOLYOKE        FAIR      48  30  49 W9        29.75S
FORT MORGAN    FAIR      40  24  53 W8        29.81S
$$

COZ086-089-092>099-241400-
...SOUTHEAST COLORADO...

CITY           SKY/WX    TMP DP  RH WIND       PRES   REMARKS
PUEBLO         FAIR      43  25  49 W12       29.87S
LA JUNTA       FAIR      47  26  44 W14       29.82F
LAMAR          FAIR      41  29  62 SW5       29.79R
SPRINGFIELD      N/A     51  26  37 NW13      29.82S
$$




USA.gov is the U.S. government's official web portal to all federal, state and local government web resources and services.